Simultaneous Nadir Overpasses (SNOs) Predictions

Prediction of SNOs between GOES-17 and NOAA-19 Satellite Orbit:

Table of predicted SNOs for the next 14.0 days since TLE Epoch: 6/20/2025
Index Date Time (GOES-17) GOES-17 Lat,Lon NOAA-19 Lat,Lon Distance(km) Time Diff (sec)
1 06/21/2025 16:44:17 0.01,-100.23 0.89,-103.93 423.55 80
2 06/22/2025 16:31:38 0.01, -99.69 0.26,-100.85 132.06 80
3 06/23/2025 16:21:37 0.01, -99.14 -0.32, -97.75 159.33 80
4 06/24/2025 16:08:57 0.01, -98.60 -0.89, -94.65 450.80 80
5 06/26/2025 04:37:28 -0.01, -97.77 -0.99,-102.12 496.38 80
6 06/27/2025 04:24:48 -0.01, -97.23 -0.40, -99.03 204.51 80
7 06/28/2025 04:14:47 -0.00, -96.69 0.20, -95.93 87.43 80
8 06/29/2025 04:02:07 0.01, -96.16 0.79, -92.84 379.52 80
9 07/01/2025 16:17:56 -0.02, -94.82 0.55, -97.20 271.92 80
10 07/02/2025 16:07:55 -0.02, -94.29 -0.03, -94.10 20.78 80
11 07/03/2025 15:55:15 -0.02, -93.76 -0.62, -91.01 313.31 80
